Powrót do katalogu

STARLINK-6354

AktywnyŁącznośćVLEO
NORAD 56784·PAYLOAD·🇺🇸 United States

Wystrzelony May 31, 2023 z Vandenberg Space Force Base

Loading…

Następne Przeloty (najbliższe 24 godziny)

TLE

ŚwieżeSource: CelesTrak SupGP

Epoka: Sep 14, 2026, 20:39 UTC

1 56784C 23078T   26257.86090278  .00692510  00000+0  52764-1 0  2576
2 56784  70.0007 207.5771 0003071 266.5918 224.7481 15.01630241    15

Śledź STARLINK-6354 w czasie rzeczywistym z AllMySat

Download on the App Store